Skip Page Navigation
NASA JPL Caltech
NASA Logo - Jet Propulsion Laboratory + View the NASA Portal
+ Center for Near-Earth Object Studies
JPL Home Earth Solar System Stars & Galaxies Technology
JPL Solar System Dynamics
BODIES ORBITS EPHEMERIDES TOOLS PHYSICAL DATA DISCOVERY FAQ SITE MAP
JPL Small-Body Database Browser
Search: [ help ]  
17231 (2000 CB122)
Classification: Main-belt Asteroid          SPK-ID: 2017231
Ephemeris | Orbit Diagram | Orbital Elements | Mission Design | Physical Parameters | Discovery Circumstances | Close-Approach Data ]

[ hide orbit diagram ]

For accurate long-term ephemerides, please instead use our Horizons system.This orbit viewer was implemented using two-body methods, and hence should not be used for determining accurate long-term trajectories (over several years or decades) or planetary encounter circumstances.


Orbital Elements at Epoch 2459200.5 (2020-Dec-17.0) TDB
Reference: JPL 27 (heliocentric ecliptic J2000)
 Element Value Uncertainty (1-sigma)   Units 
e .1596996980658794 3.3829e-08  
a 3.129051354600385 1.6111e-08 au
q 2.629342798038072 1.0376e-07 au
i 1.802198217947194 3.2682e-06 deg
node 132.0268116953144 0.00011441 deg
peri 178.5035436014948 0.00011498 deg
M 99.27485577523225 1.0781e-05 deg
tp 2458642.987990196461
(2019-Jun-08.48799020)
6.0746e-05 TDB
period 2021.703501475617
5.54
1.5615e-05
4.275e-08
d
yr
n .1780676542021322 1.3753e-09 deg/d
Q 3.628759911162697 1.8684e-08 au
  Orbit Determination Parameters
   # obs. used (total)      1687  
   data-arc span      12561 days (34.39 yr)  
   first obs. used      1986-09-12  
   last obs. used      2021-02-01  
   planetary ephem.      DE441  
   SB-pert. ephem.      SB441-N16  
   condition code      0  
   norm. resid. RMS      .51124  
   source      ORB  
   producer      Otto Matic  
   solution date      2021-Apr-13 01:57:51  

Additional Information
 Earth MOID = 1.61294 au 
 Jupiter MOID = 1.64083 au 
 T_jup = 3.193 
[ show covariance matrix ]

Ephemeris | Orbit Diagram | Orbital Elements | Mission Design | Physical Parameters | Discovery Circumstances | Close-Approach Data ]

Physical Parameter Table
Parameter Symbol Value Units Sigma Reference Notes
absolute magnitude H 13.90   n/a MPCxxxxx  
diameter diameter 9.808 km 0.178 urn:nasa:pds:neowise_diameters_albedos::2.0[mainbelt] (http://adsabs.harvard.edu/abs/2011ApJ...741...68M)  
geometric albedo albedo 0.055   0.011 urn:nasa:pds:neowise_diameters_albedos::2.0[mainbelt] (http://adsabs.harvard.edu/abs/2011ApJ...741...68M)  

17231 (2000 CB122)          Discovered 2000-Feb-03 by LINEAR at Socorro
Reference: 20000913/Numbers.arcLast Updated: 2004-04-19

[ hide close-approach data ]
Close-Approach Data   ...sorted by Date/Time (TDB)
Date/Time (TDB) Time Uncertainty
(days_HH:MM)
Body Nominal Distance (au) Minimum Distance (au) Maximum Distance (au) V-relative (km/s) V-infinity (km/s) JD (TDB) Time Uncertainty (minutes) Semi-major axis (km) Semi-minor axis (km) range-LOV angle (deg) N-sigma BP Orbit Ref. Reference Modified
1955-Dec-15 12:11 00:02 Jupiter 1.76010838089348 1.76010771917932 1.76010904260744 1.83047818475063 1.54537505892426 2435457.007797175 1.51254730260043 72.8679545125779 21.4515919756108 87.1465650169931 2161253.9838212 T 27 CATAB v2.0f-lin.ifort 2021-Apr-13 01:58:01 2021-Apr-13 01:58
1966-Mar-22 07:18 00:01 Jupiter 1.66977581226403 1.66977549548423 1.66977612904365 1.83018795026517 1.52808819151927 2439206.804504055 1.2404324932379 42.5720075124402 26.1964047747368 -89.7491227772486 2746453.20203778 T 27 CATAB v2.0f-lin.ifort 2021-Apr-13 01:58:01 2021-Apr-13 01:58
1976-Jun-23 08:36 < 00:01 Jupiter 1.94116788102208 1.94116744417736 1.94116831786691 3.49735062620441 3.37027709262213 2442952.858465073 0.93766544761739 48.0522857392938 13.2249141994179 -78.7789947005063 3907391.84380456 T 27 CATAB v2.0f-lin.ifort 2021-Apr-13 01:58:01 2021-Apr-13 01:58
2039-Jan-30 13:37 < 00:01 Jupiter 1.76000902896076 1.76000869695831 1.76000936096301 1.82129052866758 1.53446360230656 2465819.067188063 0.684491649650668 57.9182186248609 18.9835054953135 -83.4645628268233 3030589.21703653 T 27 CATAB v2.0f-lin.ifort 2021-Apr-13 01:58:01 2021-Apr-13 01:58
2049-May-07 14:56 < 00:01 Jupiter 1.67219496030543 1.67219451780299 1.67219540280748 1.82826770272182 1.52626868458999 2469569.121936211 0.995057972998006 43.7260867094966 32.2204085042639 -83.4898770260903 2025451.23086794 T 27 CATAB v2.0f-lin.ifort 2021-Apr-13 01:58:01 2021-Apr-13 01:58
2059-Aug-10 11:36 00:01 Jupiter 1.94289689774577 1.94289619513229 1.94289760035952 3.49608464995455 3.36907862522576 2473315.983655773 1.21914709845968 58.124877752371 15.2346715390097 -68.2994099872867 3188145.31628976 T 27 CATAB v2.0f-lin.ifort 2021-Apr-13 01:58:01 2021-Apr-13 01:58
2122-Mar-16 14:00 00:03 Jupiter 1.76366684352087 1.76366597152962 1.76366771551352 1.82203740571782 1.53599997265855 2496179.083208315 2.82548604678166 130.988713915275 21.8789401930725 86.1954386071881 2312350.93351531 T 27 CATAB v2.0f-lin.ifort 2021-Apr-13 01:58:01 2021-Apr-13 01:58
2132-Jun-24 06:26 00:03 Jupiter 1.68286948790168 1.68286880289193 1.68287017291046 1.84717687195331 1.55094217658301 2499931.767830295 3.18550973271755 69.0629037640989 39.1511249761335 -35.8380361220788 1302458.0784322 T 27 CATAB v2.0f-lin.ifort 2021-Apr-13 01:58:01 2021-Apr-13 01:58
2142-Sep-28 07:20 00:03 Jupiter 1.9473362954971 1.9473347928688 1.94733779812785 3.49749602021088 3.37083803360774 2503679.805554957 3.34767589101688 138.301320629131 15.1667909512285 -67.9550862860036 3116901.40747009 T 27 CATAB v2.0f-lin.ifort 2021-Apr-13 01:58:01 2021-Apr-13 01:58

Alternate Designations
 2000 CB122 = 1986 RY14 = 1996 HE23 = 1996 KK9 
Ephemeris | Orbit Diagram | Orbital Elements | Mission Design | Physical Parameters | Discovery Circumstances | Close-Approach Data ]
ABOUT SSD CREDITS/AWARDS PRIVACY/COPYRIGHT GLOSSARY LINKS
FirstGov 2021-Jun-23 22:33 UT
(server date/time)  
NASA Home Page
Site Manager:   Ryan S. Park
Webmaster  Alan B. Chamberlin